Flag for U.S.A. Weather past 2 weeks in Arden-Arcade, California, U.S.A.

Now
57 °F

Smoke.


Feels Like: 57 °F
Forecast: 50 / 79 °F
Wind: 1 mph from South

Location: Mather Field

Current Time: Oct 24, 2014 at 11:16:00 AM

Latest Report: Oct 24, 2014 at 9:54 AM


Visibility: N/A

Pressure: 29.99 "Hg

Humidity: 82%

Dew point: 52 °F

Location of Arden-ArcadeLocation

Historic Weather in Arden-Arcade — Graph

°F

Arden-Arcade temperature yesterday

Maximum temperature yesterday: 73 °F (at 1:45 PM)
Minimum temperature yesterday: 55 °F (at 3:55 AM)
Average temperature yesterday: 64 °F

Past Weeks' High & Low Weather Summary

 TemperatureHumidityPressure
High90 °F (Oct 12, 2:46 PM)100% (Oct 10, 3:55 AM)30.11 "Hg (Oct 10, 3:55 AM)
Low45 °F (Oct 21, 5:48 AM)10% (Oct 12, 3:54 PM)29.80 "Hg (Oct 14, 2:55 PM)
Average65 °F62%29.96 "Hg
* Reported Oct 9 9:51 AM — Oct 24 9:54 AM, Arden-Arcade, Weather by CustomWeather, © 2014

Note: Actual official high and low records may vary slightly from our data, if they occured in-between our weather recording intervals... More about our weather records

Advertising

Arden-Arcade weather history for previous 24 hours

 ConditionsComfort  
Time TempWeatherWind HumidityBarometerVisibility
9:54 AM
Oct 24
57 °FSmoke.1 mph82%29.99 "HgN/A
8:49 AM50 °FPassing clouds.No wind100%29.99 "Hg10 mi
8:41 AM50 °FLight fog.No wind100%29.98 "Hg7 mi
8:15 AM46 °FFog.No wind100%29.98 "Hg0 mi
7:45 AM46 °FFog.No wind100%29.98 "Hg5 mi
6:55 AM46 °FFog.3 mph100%29.97 "Hg1 mi
6:20 AM46 °FFog.5 mph100%29.97 "Hg1 mi
5:50 AM50 °FFog.No wind100%29.97 "Hg6 mi
4:50 AM52 °FClear.No wind100%29.97 "Hg10 mi
3:50 AM54 °FClear.3 mph100%29.97 "Hg10 mi
2:50 AM54 °FClear.5 mph100%29.98 "Hg10 mi
11:30 PM
Oct 23
57 °FPassing clouds.8 mph100%30.00 "Hg10 mi
10:45 PM57 °FPassing clouds.9 mph100%30.00 "Hg10 mi
9:46 PM59 °FPassing clouds.9 mph94%29.99 "Hg10 mi
8:55 PM63 °FPassing clouds.12 mph77%29.98 "Hg10 mi
7:47 PM66 °FPassing clouds.7 mph56%29.97 "Hg10 mi
6:45 PM68 °FPartly sunny.7 mph56%29.96 "Hg10 mi
5:45 PM73 °FPartly sunny.6 mph47%29.96 "Hg10 mi
3:45 PM73 °FPartly sunny.No wind47%30.00 "Hg10 mi
2:45 PM73 °FPartly sunny.5 mph44%30.01 "Hg10 mi
1:45 PM73 °FPartly sunny.5 mph44%30.02 "Hg10 mi
11:55 AM72 °FPartly sunny.3 mph53%30.06 "Hg10 mi
Weather by CustomWeather, © 2014

See weather overviewHow to use our weather pages